Location: Carthage
(33.8834°N, 106.6595°W)
Time: 09:57:14
(UTC+00:00)

Cosmos 1300 Rocket - Pass Details

Date: 13 February 2026
Orbit: 595 x 619 km, 82.5° (Epoch: 10 March)

Event Time Altitude Azimuth Distance (km) Brightness Sun altitude
Rises 12:37:37 0° 184° (S) 2,867 7.0 -16.2°
Reaches altitude 10° 12:39:49 10° 183° (S) 1,969 6.2 -15.8°
Maximum altitude 12:44:11 85° 96° (E) 625 3.6 -14.9°
Drops below altitude 10° 12:48:36 10° 8° (N) 1,989 6.2 -13.9°
Sets 12:50:50 0° 8° (N) 2,899 7.0 -13.5°
